Little Chicago, Northwest Territories

11:42 PM MDT on April 24, 2017 (GMT -0600)
Little Chicago

Weather History for CWLG - January, 2014

Change the Weather History Date:

Sunday, January 19, 2014

  Actual Average Record
Temperature  
Mean Temperature -8 °F -  
Max Temperature -4 °F - - ()
Min Temperature -13 °F - - ()
Degree Days  
Heating Degree Days 74    
Moisture  
Dew Point -12 °F    
Average Humidity 79    
Maximum Humidity 82    
Minimum Humidity 68    
Precipitation  
Precipitation 0.00 in - - ()
Sea Level Pressure  
Sea Level Pressure 29.97 in    
Wind  
Wind Speed 3 mph ()    
Max Wind Speed 6 mph    
Max Gust Speed -    
T = Trace of Precipitation, MM = Missing Value Source: Averaged Metar Reports

Daily Weather History Graph

Daily Weather History Graph

Search for Another Location

Airport or City:

Trip Planner

Search our weather history database for the weather conditions in past years. The results will help you decide how hot, cold, wet, or windy it might be!

Date:

Astronomy

Jan. 19, 2014 Rise Set
Actual Time 11:38 AM MST 4:05 PM MST
Civil Twilight 10:16 AM MST 5:28 PM MST
Nautical Twilight 9:02 AM MST 6:41 PM MST
Astronomical Twilight 7:58 AM MST 7:46 PM MST
Moon 10:11 PM MST (1/19) 11:01 AM MST (1/19)
Length of Visible Light 7h 11m
Length of Day
4h 26m
Waning Gibbous, 89% of the Moon is Illuminated
Jan 19
Waning Gibbous
Jan 23
Last Quarter
Jan 30
New
Feb 6
First Quarter
Feb 14
Full

Hourly Weather History & Observations

Time (MST) Temp. Windchill Dew Point Humidity Pressure Visibility Wind Dir Wind Speed Gust Speed Precip Events Conditions
12:00 AM -7.6 °F - -12.5 °F 79% 29.75 in - SE 2.3 mph - N/A   Unknown
1:00 AM -8.1 °F -17.1 °F -13.2 °F 79% 29.78 in - SE 3.5 mph - N/A   Unknown
2:00 AM -8.3 °F -19.6 °F -13.5 °F 78% 29.78 in - ESE 4.6 mph - N/A   Unknown
3:00 AM -8.0 °F -16.9 °F -13.2 °F 78% 29.80 in - ESE 3.5 mph - N/A   Unknown
4:00 AM -7.1 °F -15.9 °F -12.3 °F 78% 29.81 in - SE 3.5 mph - N/A   Unknown
5:00 AM -7 °F - -11 °F 71% 29.83 in - SSE 1.2 mph - -  
5:00 AM -6.9 °F - -11.4 °F 81% 29.83 in - South 1.2 mph - N/A   Unknown
6:00 AM -6.5 °F - -11.0 °F 81% 29.86 in - SSW 1.2 mph - N/A   Unknown
7:00 AM -6.5 °F - -11.0 °F 81% 29.88 in - Calm Calm - N/A   Unknown
8:00 AM -6.3 °F - -10.7 °F 82% 29.88 in - Calm Calm - N/A   Unknown
9:00 AM -6.0 °F - -10.3 °F 82% 29.91 in - SW 1.2 mph - N/A   Unknown
10:00 AM -4.9 °F - -9.2 °F 82% 29.93 in - SE 1.2 mph - N/A   Unknown
11:00 AM -4 °F - -9 °F 70% 29.95 in - SE 2.3 mph - -  
11:00 AM -4.2 °F - -8.7 °F 81% 29.95 in - SSE 2.3 mph - N/A   Unknown
12:00 PM -5.8 °F -14.5 °F -10.3 °F 81% 29.97 in - ESE 3.5 mph - N/A   Unknown
1:00 PM -5.4 °F -16.2 °F -9.9 °F 81% 30.00 in - SE 4.6 mph - N/A   Unknown
2:00 PM -5.1 °F -15.8 °F -9.6 °F 81% 30.01 in - ESE 4.6 mph - N/A   Unknown
3:00 PM -5.1 °F -17.6 °F -9.8 °F 80% 30.02 in - ESE 5.8 mph - N/A   Unknown
4:00 PM -6.2 °F -17.1 °F -10.8 °F 80% 30.04 in - SE 4.6 mph - N/A   Unknown
5:00 PM -7 °F - -12 °F 68% 30.05 in - ESE 4.6 mph - -  
5:00 PM -7.2 °F -18.3 °F -11.9 °F 80% 30.05 in - ESE 4.6 mph - N/A   Unknown
6:00 PM -7.1 °F - -11.4 °F 81% 30.07 in - ESE 1.2 mph - N/A   Unknown
7:00 PM -10.8 °F - -15.3 °F 80% 30.10 in - NW 1.2 mph - N/A   Unknown
8:00 PM -11.4 °F - -16.1 °F 80% 30.14 in - NW 2.3 mph - N/A   Unknown
9:00 PM -10.7 °F -24.2 °F -15.5 °F 79% 30.15 in - NNW 5.8 mph - N/A   Unknown
10:00 PM -10.3 °F -21.9 °F -15.0 °F 80% 30.17 in - NNW 4.6 mph - N/A   Unknown
11:00 PM -13 °F - -18 °F 70% 30.19 in - NNW 3.5 mph - -  
11:00 PM -12.6 °F -22.3 °F -17.5 °F 79% 30.19 in - NNW 3.5 mph - N/A   Unknown